• Em Portugal
  • Lista de países
  • Para 7 dias
  • Temperatura da água
  • Mapas de satélite
  • Mapa do tempo
  • Widgets de tempo
  • user-avatar
    Iniciar Sessão

    Previsão horária em Niemcowizna

    Hoje, 22 Junho, Sexta-feira

    Tempo Temperatura Precipitação Vento Pressão Humidade
    00:00 +13°C° 0 mm 5 m/s 739 mmHg 94%
    01:00 +12°C° 0 mm 5 m/s 739 mmHg 94%
    02:00 +10°C° 0 mm 3 m/s 740 mmHg 94%
    03:00 +10°C° 0 mm 4 m/s 740 mmHg 94%
    04:00 +8°C° 0 mm 4 m/s 741 mmHg 94%
    05:00 +8°C° 0 mm 5 m/s 741 mmHg 93%
    06:00 +9°C° 0 mm 5 m/s 741 mmHg 88%
    07:00 +10°C° 0 mm 5 m/s 742 mmHg 83%
    08:00 +11°C° 0 mm 6 m/s 742 mmHg 78%
    09:00 +13°C° 0 mm 6 m/s 742 mmHg 71%
    10:00 +14°C° 0 mm 6 m/s 742 mmHg 65%
    11:00 +15°C° 0 mm 6 m/s 742 mmHg 58%
    12:00 +16°C° 0 mm 6 m/s 743 mmHg 56%
    13:00 +16°C° 0 mm 6 m/s 743 mmHg 53%
    14:00 +17°C° 0 mm 6 m/s 743 mmHg 51%
    15:00 +17°C° 0 mm 6 m/s 743 mmHg 52%
    16:00 +17°C° 0 mm 5 m/s 743 mmHg 53%
    17:00 +16°C° 0 mm 5 m/s 743 mmHg 55%
    18:00 +15°C° 0 mm 4 m/s 743 mmHg 61%
    19:00 +14°C° 0 mm 3 m/s 743 mmHg 67%
    20:00 +14°C° 0 mm 2 m/s 744 mmHg 74%
    21:00 +13°C° 0 mm 2 m/s 744 mmHg 78%
    22:00 +12°C° 0 mm 2 m/s 744 mmHg 83%
    23:00 +10°C° 0 mm 1 m/s 744 mmHg 87%

    Amanhã, 23 Junho, Sábado

    Tempo Temperatura Precipitação Vento Pressão Humidade
    00:00 +9°C° 0 mm 2 m/s 744 mmHg 88%
    01:00 +9°C° 0 mm 2 m/s 744 mmHg 89%
    02:00 +8°C° 0 mm 2 m/s 744 mmHg 90%
    03:00 +8°C° 0 mm 2 m/s 744 mmHg 90%
    04:00 +8°C° 0 mm 2 m/s 744 mmHg 90%
    05:00 +8°C° 0 mm 2 m/s 744 mmHg 91%
    06:00 +10°C° 0 mm 2 m/s 744 mmHg 84%
    07:00 +12°C° 0 mm 3 m/s 744 mmHg 78%
    08:00 +13°C° 0 mm 3 m/s 744 mmHg 72%
    09:00 +16°C° 0,1 mm 3 m/s 744 mmHg 66%
    10:00 +17°C° 0,1 mm 3 m/s 744 mmHg 61%
    11:00 +18°C° 0,1 mm 3 m/s 743 mmHg 55%
    12:00 +18°C° 0,4 mm 3 m/s 743 mmHg 57%
    13:00 +18°C° 0,4 mm 4 m/s 743 mmHg 60%
    14:00 +18°C° 0,4 mm 4 m/s 743 mmHg 62%
    15:00 +18°C° 0,4 mm 4 m/s 743 mmHg 65%
    16:00 +17°C° 0,4 mm 3 m/s 742 mmHg 67%
    17:00 +17°C° 0,4 mm 3 m/s 742 mmHg 70%
    18:00 +16°C° 0,6 mm 3 m/s 742 mmHg 77%
    19:00 +14°C° 0,6 mm 3 m/s 742 mmHg 83%
    20:00 +14°C° 0,6 mm 2 m/s 742 mmHg 89%
    21:00 +13°C° 0,1 mm 2 m/s 742 mmHg 91%
    22:00 +12°C° 0,1 mm 2 m/s 742 mmHg 93%
    23:00 +9°C° 0,1 mm 2 m/s 743 mmHg 95%

    Depois de amanhã, 24 Junho, Domingo

    Tempo Temperatura Precipitação Vento Pressão Humidade
    00:00 +9°C° 0 mm 3 m/s 743 mmHg 95%
    01:00 +8°C° 0 mm 3 m/s 743 mmHg 95%
    02:00 +8°C° 0 mm 3 m/s 743 mmHg 95%
    03:00 +7°C° 0,1 mm 3 m/s 743 mmHg 95%
    04:00 +7°C° 0,1 mm 3 m/s 743 mmHg 95%
    05:00 +7°C° 0,1 mm 3 m/s 743 mmHg 95%
    06:00 +9°C° 0,1 mm 3 m/s 743 mmHg 92%
    07:00 +10°C° 0,1 mm 3 m/s 743 mmHg 89%
    08:00 +11°C° 0,1 mm 3 m/s 743 mmHg 86%
    09:00 +12°C° 0,2 mm 3 m/s 743 mmHg 81%
    10:00 +13°C° 0,2 mm 4 m/s 743 mmHg 76%
    11:00 +14°C° 0,2 mm 4 m/s 743 mmHg 71%
    12:00 +16°C° 0,4 mm 3 m/s 743 mmHg 70%
    13:00 +16°C° 0,4 mm 3 m/s 743 mmHg 69%
    14:00 +17°C° 0,4 mm 3 m/s 743 mmHg 69%
    15:00 +17°C° 0,4 mm 3 m/s 743 mmHg 70%
    16:00 +17°C° 0,4 mm 4 m/s 743 mmHg 71%
    17:00 +15°C° 0,4 mm 4 m/s 743 mmHg 73%
    18:00 +16°C° 0,1 mm 3 m/s 744 mmHg 77%
    19:00 +14°C° 0,1 mm 3 m/s 744 mmHg 81%
    20:00 +14°C° 0,1 mm 2 m/s 744 mmHg 86%
    21:00 +13°C° 0 mm 2 m/s 744 mmHg 88%
    22:00 +12°C° 0 mm 2 m/s 745 mmHg 91%
    23:00 +9°C° 0 mm 2 m/s 745 mmHg 93%

    25 Junho, Segunda-feira

    Tempo Temperatura Precipitação Vento Pressão Humidade
    00:00 +9°C° 0 mm 2 m/s 745 mmHg 94%
    01:00 +9°C° 0 mm 2 m/s 745 mmHg 94%
    02:00 +9°C° 0 mm 2 m/s 745 mmHg 94%
    03:00 +9°C° 0 mm 2 m/s 746 mmHg 94%
    04:00 +9°C° 0 mm 2 m/s 746 mmHg 95%
    05:00 +9°C° 0 mm 2 m/s 746 mmHg 95%
    06:00 +10°C° 0 mm 2 m/s 747 mmHg 89%
    07:00 +13°C° 0 mm 2 m/s 747 mmHg 83%
    08:00 +15°C° 0 mm 2 m/s 747 mmHg 77%
    09:00 +16°C° 0 mm 2 m/s 747 mmHg 69%
    10:00 +17°C° 0 mm 3 m/s 748 mmHg 62%
    11:00 +18°C° 0 mm 3 m/s 748 mmHg 54%
    12:00 +18°C° 0 mm 3 m/s 748 mmHg 54%
    13:00 +19°C° 0 mm 3 m/s 748 mmHg 54%
    14:00 +20°C° 0 mm 4 m/s 748 mmHg 54%
    15:00 +19°C° 0,2 mm 4 m/s 748 mmHg 58%
    16:00 +19°C° 0,2 mm 4 m/s 748 mmHg 61%
    17:00 +19°C° 0,2 mm 4 m/s 748 mmHg 65%
    18:00 +18°C° 0,1 mm 3 m/s 748 mmHg 70%
    19:00 +17°C° 0,1 mm 2 m/s 749 mmHg 75%
    20:00 +16°C° 0,1 mm 2 m/s 749 mmHg 81%
    21:00 +15°C° 0 mm 1 m/s 749 mmHg 83%
    22:00 +13°C° 0 mm 1 m/s 749 mmHg 86%
    23:00 +12°C° 0 mm 1 m/s 749 mmHg 88%

    26 Junho, Terça-feira

    Tempo Temperatura Precipitação Vento Pressão Humidade
    00:00 +12°C° 0 mm 1 m/s 749 mmHg 89%
    01:00 +10°C° 0 mm 2 m/s 750 mmHg 90%
    02:00 +10°C° 0 mm 2 m/s 750 mmHg 90%
    03:00 +10°C° 0 mm 2 m/s 750 mmHg 90%
    04:00 +12°C° 0 mm 2 m/s 750 mmHg 89%
    05:00 +12°C° 0 mm 2 m/s 750 mmHg 88%
    06:00 +13°C° 0 mm 2 m/s 750 mmHg 84%
    07:00 +15°C° 0 mm 2 m/s 750 mmHg 80%
    08:00 +16°C° 0 mm 2 m/s 750 mmHg 76%
    09:00 +17°C° 0,2 mm 3 m/s 750 mmHg 75%
    10:00 +17°C° 0,2 mm 3 m/s 750 mmHg 73%
    11:00 +18°C° 0,2 mm 3 m/s 750 mmHg 71%
    12:00 +18°C° 0,4 mm 3 m/s 749 mmHg 73%
    13:00 +18°C° 0,4 mm 4 m/s 749 mmHg 75%
    14:00 +18°C° 0,4 mm 4 m/s 749 mmHg 77%
    15:00 +19°C° 0,1 mm 4 m/s 749 mmHg 74%
    16:00 +20°C° 0,1 mm 4 m/s 748 mmHg 70%
    17:00 +20°C° 0,1 mm 4 m/s 748 mmHg 67%
    18:00 +19°C° 0,4 mm 4 m/s 748 mmHg 73%
    19:00 +18°C° 0,4 mm 3 m/s 748 mmHg 80%
    20:00 +17°C° 0,4 mm 3 m/s 748 mmHg 87%
    21:00 +16°C° 0 mm 3 m/s 748 mmHg 89%
    22:00 +14°C° 0 mm 3 m/s 748 mmHg 91%
    23:00 +12°C° 0 mm 3 m/s 748 mmHg 93%

    27 Junho, Quarta-feira

    Tempo Temperatura Precipitação Vento Pressão Humidade
    00:00 +12°C° 0 mm 3 m/s 748 mmHg 94%
    01:00 +11°C° 0 mm 3 m/s 748 mmHg 95%
    02:00 +10°C° 0 mm 3 m/s 748 mmHg 96%
    03:00 +10°C° 0 mm 3 m/s 749 mmHg 96%
    04:00 +10°C° 0 mm 3 m/s 749 mmHg 96%
    05:00 +10°C° 0 mm 3 m/s 749 mmHg 97%
    06:00 +11°C° 0 mm 3 m/s 749 mmHg 93%
    07:00 +13°C° 0 mm 3 m/s 749 mmHg 89%
    08:00 +14°C° 0 mm 4 m/s 749 mmHg 85%
    09:00 +15°C° 0 mm 4 m/s 749 mmHg 82%
    10:00 +17°C° 0 mm 4 m/s 749 mmHg 80%
    11:00 +17°C° 0 mm 4 m/s 749 mmHg 77%
    12:00 +18°C° 0,1 mm 4 m/s 749 mmHg 73%
    13:00 +19°C° 0,1 mm 4 m/s 749 mmHg 69%
    14:00 +20°C° 0,1 mm 5 m/s 749 mmHg 65%
    15:00 +21°C° 0,1 mm 5 m/s 749 mmHg 65%
    16:00 +21°C° 0,1 mm 5 m/s 749 mmHg 66%
    17:00 +21°C° 0,1 mm 5 m/s 749 mmHg 66%
    18:00 +20°C° 0,2 mm 5 m/s 749 mmHg 72%
    19:00 +19°C° 0,2 mm 4 m/s 749 mmHg 77%
    20:00 +18°C° 0,2 mm 3 m/s 749 mmHg 83%
    21:00 +17°C° 0 mm 3 m/s 749 mmHg 86%
    22:00 +16°C° 0 mm 3 m/s 749 mmHg 89%
    23:00 +13°C° 0 mm 4 m/s 750 mmHg 92%
    Mostrar mais